This is the latest recevied weather packets stored in our database for station/object SP2ARK-10. If no packets are shown the sender has not sent any weather packets the latest 10 day(s).
| Time | Temp. | Humidity | Pressure | Rain* | Wind** | Luminosity | Snow |
|---|---|---|---|---|---|---|---|
| 1777376664 | 12.78° C | 53% | 1031.1 hPa | - | - | - | - |
| 1777375763 | 12.22° C | 54% | 1031 hPa | - | - | - | - |
| 1777374863 | 12.22° C | 54% | 1031.2 hPa | - | - | - | - |
| 1777373962 | 11.67° C | 54% | 1031.4 hPa | - | - | - | - |
| 1777373062 | 11.11° C | 56% | 1031.5 hPa | - | - | - | - |
| 1777372161 | 10° C | 57% | 1031.6 hPa | - | - | - | - |
| 1777371260 | 10° C | 57% | 1031.6 hPa | - | - | - | - |
| 1777370359 | 10° C | 59% | 1031.6 hPa | - | - | - | - |
| 1777369459 | 9.44° C | 59% | 1031.7 hPa | - | - | - | - |
| 1777368558 | 8.89° C | 59% | 1031.9 hPa | - | - | - | - |
| 1777367657 | 8.33° C | 60% | 1031.9 hPa | - | - | - | - |
| 1777366757 | 7.22° C | 60% | 1032 hPa | - | - | - | - |
| 1777365857 | 7.22° C | 63% | 1032.2 hPa | - | - | - | - |
| 1777364956 | 7.22° C | 63% | 1032.2 hPa | - | - | - | - |
| 1777364056 | 6.67° C | 62% | 1032.3 hPa | - | - | - | - |
| 1777363155 | 6.11° C | 66% | 1032.4 hPa | - | - | - | - |
| 1777362255 | 6.11° C | 71% | 1032.6 hPa | - | - | - | - |
| 1777361354 | 5.56° C | 70% | 1032.5 hPa | - | - | - | - |
| 1777360454 | 5.56° C | 74% | 1032.6 hPa | - | - | - | - |
| 1777359553 | 5° C | 75% | 1032.5 hPa | - | - | - | - |
| 1777358653 | 5° C | 77% | 1032.4 hPa | - | - | - | - |
| 1777357752 | 4.44° C | 77% | 1032.5 hPa | - | - | - | - |
| 1777356851 | 5° C | 76% | 1032.4 hPa | - | - | - | - |
| 1777355950 | 5° C | 75% | 1032.2 hPa | - | - | - | - |
| 1777355050 | 5° C | 75% | 1032 hPa | - | - | - | - |
* Rain since midnight (hover to see other rain measurements)
** Current wind speed in m/s (hover to see current wind gust speed)